Medicine Lodge, KS

2:40 AM CDT on August 29, 2016 (GMT -0500)
Medicine Lodge

Weather History for KP28 - November, 2012

Change the Weather History Date:

Thursday, November 15, 2012

  Actual Average Record
Temperature  
Mean Temperature 47 °F 46 °F  
Max Temperature 61 °F 58 °F 83 °F (1952)
Min Temperature 33 °F 33 °F 8 °F (1982)
Degree Days  
Heating Degree Days 18 19  
Month to date heating degree days 197 241  
Since 1 July heating degree days 478 510  
Moisture  
Dew Point 31 °F    
Average Humidity 54    
Maximum Humidity 75    
Minimum Humidity 33    
Precipitation  
Precipitation 0.00 in 0.03 in 1.48 in (1964)
Month to date precipitation 0.98 0.60  
Year to date precipitation 17.92 25.89  
Sea Level Pressure  
Sea Level Pressure 30.27 in    
Wind  
Wind Speed 7 mph (East)    
Max Wind Speed 12 mph    
Max Gust Speed 16 mph    
T = Trace of Precipitation, MM = Missing Value Source: NWS Daily Summary

Daily Weather History Graph

Daily Weather History Graph

Search for Another Location

Airport or City:

Trip Planner

Search our weather history database for the weather conditions in past years. The results will help you decide how hot, cold, wet, or windy it might be!

Date:

Astronomy

Nov. 15, 2012 Rise Set
Actual Time 7:13 AM CST 5:23 PM CST
Civil Twilight 6:46 AM CST 5:51 PM CST
Nautical Twilight 6:14 AM CST 6:22 PM CST
Astronomical Twilight 5:43 AM CST 6:53 PM CST
Moon 9:09 AM CST (11/15) 7:18 PM CST (11/15)
Length of Visible Light 11h 05m
Length of Day
10h 09m
Waxing Crescent, 5% of the Moon is Illuminated
Nov 15
Waxing Crescent
Nov 20
First Quarter
Nov 28
Full
Dec 6
Last Quarter
Dec 13
New

Hourly Weather History & Observations

Time (CST) Temp. Windchill Dew Point Humidity Pressure Visibility Wind Dir Wind Speed Gust Speed Precip Events Conditions
12:56 AM 39.9 °F 35.1 °F 28.9 °F 65% 30.20 in - SE 6.9 mph - N/A   Unknown
1:56 AM 39.0 °F 33.4 °F 28.9 °F 67% 30.18 in - ESE 8.1 mph - N/A   Unknown
2:56 AM 37.0 °F 30.4 °F 28.9 °F 73% 30.19 in - ESE 9.2 mph - N/A   Unknown
3:56 AM 36.0 °F 29.0 °F 28.0 °F 73% 30.18 in - ESE 9.2 mph - N/A   Unknown
4:56 AM 35.1 °F 27.9 °F 28.0 °F 76% 30.19 in - ESE 9.2 mph - N/A   Unknown
5:56 AM 34.0 °F 27.2 °F 27.0 °F 75% 30.20 in - SE 8.1 mph - N/A   Unknown
6:56 AM 34.0 °F 28.0 °F 27.0 °F 75% 30.20 in - ESE 6.9 mph - N/A   Unknown
7:56 AM 35.1 °F 30.1 °F 28.0 °F 76% 30.24 in - ESE 5.8 mph - N/A   Unknown
8:56 AM 37.0 °F 32.4 °F 28.9 °F 73% 30.25 in - ESE 5.8 mph - N/A   Unknown
9:56 AM 42.1 °F - 30.0 °F 62% 30.27 in - Calm Calm - N/A   Unknown
10:56 AM 46.9 °F - 30.9 °F 54% 30.28 in - East 6.9 mph - N/A   Unknown
11:56 AM 53.1 °F - 30.9 °F 43% 30.27 in - ESE 4.6 mph - N/A   Unknown
12:56 PM 55.0 °F - 30.9 °F 40% 30.24 in - Variable 6.9 mph - N/A   Unknown
1:56 PM 59.0 °F - 30.9 °F 35% 30.22 in - East 5.8 mph - N/A   Unknown
2:56 PM 60.1 °F - 32.0 °F 35% 30.23 in - East 10.4 mph - N/A   Unknown
3:56 PM 60.1 °F - 34.0 °F 38% 30.25 in - ENE 9.2 mph - N/A   Unknown
4:56 PM 57.0 °F - 36.0 °F 45% 30.27 in - East 6.9 mph - N/A   Unknown
5:56 PM 51.1 °F - 36.0 °F 56% 30.31 in - ENE 8.1 mph - N/A   Unknown
6:56 PM 50.0 °F - 36.0 °F 59% 30.34 in - NE 8.1 mph - N/A   Unknown
7:56 PM 48.9 °F - 34.0 °F 56% 30.35 in - NE 10.4 mph - N/A   Unknown
8:56 PM 46.9 °F - 34.0 °F 61% 30.36 in - ENE 10.4 mph - N/A   Unknown
9:56 PM 45.0 °F 41.8 °F 34.0 °F 65% 30.38 in - ENE 5.8 mph - N/A   Unknown
10:56 PM 43.0 °F 40.3 °F 33.1 °F 68% 30.38 in - North 4.6 mph - N/A   Unknown
11:56 PM 39.9 °F 37.8 °F 33.1 °F 77% 30.39 in - North 3.5 mph - N/A   Unknown